Location: Mascot Post Office (historical)
(40.2645°N, 99.5462°W)
Time: 15:53:53
(UTC+00:00)

NOSS 3-4 (C) - Pass Details

Date: 14 July 2020
Orbit: 891 x 1321 km, 63.4° (Epoch: 12 July)

Event Time Altitude Azimuth Distance (km) Brightness Sun altitude
Rises 03:00:14 0° 329° (NNW) 3,821 8.1 -9.1°
Reaches altitude 10° 03:02:55 10° 336° (NNW) 2,927 7.1 -9.5°
Maximum altitude 03:09:37 46° 48° (NE) 1,524 4.5 -10.5°
Enters shadow 03:16:11 13° 118° (ESE) 2,957 5.4 -11.5°
